STARLINK-33940, 63831

Orbit data source: Space-Track

STARLINK-33940, 63831 is a payload satellite owned by SpaceX/Seattle (US) in LEO that was launched on Sun, 04 May 2025 UTC via an FALCON 9 launch vehicle from the Air Force Eastern Test Range (AFETR). Payload-class satellites include a variety of spacecraft equipped with specific instruments for various scientific and technological missions. These include communications satellites like Starlink; space stations such as the ISS; scientific satellites like the Hubble; Earth observation satellites from companies like Planet Labs, Umbra, and HawkEye 360; GPS; miniature CubeSats for education and research; and military/defense satellites.

Loading next visibility...
Identifier
63831, 2025-092AD
Orbit
LEO
Country
Flag of USUS
Related business
Manufacturer
SpaceX/Seattle
Mission
Operational Commercial Communications
Bus & Motor
STARLINK V2MO, Unknown motor
Mass
575 kg wet, ~530 kg dry
Launch date (UTC)
2025-05-04 (1 year ago)
Launch vehicle
FALCON 9
Launch site
Air Force Eastern Test Range (AFETR)
Object type
Payload
Rocket body
Debris
Shape & HBR
Box + 1 Pan, 17.7 m
Radar Cross Section
41.120 m², Large (>1 m²)

Expand to show TLE details & history
Last TLE update: 21 hours ago

TLE from 21 hours ago
0 STARLINK-33940
1 63831U 25092AD  26267.00389720  .00011141  00000-0  41360-3 0  9996
2 63831  42.9995 132.6250 0001145 262.0409  98.0312 15.27591650 78991
Epoch: 2026-09-24T00:05Z
TLE epoch observation values (Epoch: 2026-09-24T00:05:36.718Z)
Latitude
-0.00005°
Longitude
128.37505°
Altitude
482.899 km
Speed
7.626 km/s
True Right ascension
08h 50m 29s
True Declination
0° 00' 00"
Sunlit
Object was in daylight at epoch
Visualization orbit readout
Latitude
Unknown
Longitude
Unknown
Altitude
Unknown
Speed
Unknown
Apparent Right ascension
Unknown
Apparent Declination
Unknown
Sunlit
N/A
Visualization observer readout
Local Sidereal Time
14:19:16
Azimuth
Unknown
Elevation
Unknown
Doppler factor
Unknown
Orbital elements
Apogee altitude
485.745 km
Perigee altitude
484.174 km
Semi-major axis
6,863.096 km
Eccentricity
0.00011
Inclination
42.9995°
RAAN
132.625°
Arg. of periapsis
262.0409°
True anomaly
98.04419°
Mean anomaly
98.0312°
Eccentric anomaly
98.0377°
Mean motion
3.81736 °/min
Orbital period
94.31 mins
BSTAR
0.0004136
Loading maneuver chart data...
Computing Atmospheric mass density...
Loading historical data...
Loading historical data...
Loading historical data...
Loading historical data...
Loading historical data...
Loading historical data...
Loading historical data...

Documentation

Showing up to 5 results
|